THORAD DELTA 1 DEB, 8789

Orbit data source: Space-Track

THORAD DELTA 1 DEB, 8789 is space debris in SSO originally from a launch on Fri, 15 Nov 1974 UTC launched from the Air Force Western Test Range (AFWTR). Debris objects in space refer to the collection of defunct objects orbiting the Earth. Examples of debris include non-operational satellites, rocket bodies, and fragments generated from explosions, collisions, or faulty payload assembly.

Loading next visibility...
Identifier
8789, 1974-089DR
Orbit
SSO
Country
Flag of USUS
Related business
Manufacturer
Unknown
Mission
Spacecraft
Bus & Motor
Unknown
Mass
Unknown
Launch date (UTC)
1974-11-15 (51 years ago)
Launch vehicle
Unknown
Launch site
Air Force Western Test Range (AFWTR)
Object type
Payload
Rocket body
Debris
Shape & HBR
Unknown shape, 0.1 m
Radar Cross Section
Small (<0.1 m²)

Expand to show TLE details & history
Last TLE update: 2 days ago

TLE from 2 days ago
0 THORAD DELTA 1 DEB
1  8789U 74089DR  26047.32492786 -.00000042  00000-0  17711-4 0  9998
2  8789 102.1380 359.7821 0105920 112.9802  42.6893 12.38984458317470
Epoch: 2026-02-16T07:47Z
TLE epoch observation values (Epoch: 2026-02-16T07:47:53.767Z)
Latitude
22.96359°
Longitude
-78.30988°
Altitude
1,452.345 km
Speed
7.165 km/s
True Right ascension
12h 19m 56s
True Declination
22° 51' 05"
Sunlit
Object was in full shadow at epoch
Visualization orbit readout
Latitude
Unknown
Longitude
Unknown
Altitude
Unknown
Speed
Unknown
Apparent Right ascension
Unknown
Apparent Declination
Unknown
Sunlit
N/A
Visualization observer readout
Local Sidereal Time
06:16:02
Azimuth
Unknown
Elevation
Unknown
Doppler factor
Unknown
Orbital elements
Apogee altitude
1,592.03 km
Perigee altitude
1,424.96 km
Semi-major axis
7,886.632 km
Eccentricity
0.01059
Inclination
102.138°
RAAN
359.7821°
Arg. of periapsis
112.9802°
True anomaly
43.52031°
Mean anomaly
42.6893°
Eccentric anomaly
43.10399°
Mean motion
3.09889 °/min
Orbital period
116.17 mins
BSTAR
0.000017711
Loading maneuver chart data...
Computing Atmospheric mass density...

Documentation

Showing up to 5 results
|